Hourly Data Report for October 22, 2013

All times are specified in Local Standard Time (LST). Add 1 hour to adjust for Daylight Saving Time where and when it is observed.

FREDERICTON
NEW BRUNSWICK

45°52'08.000" N
66°32'14.000" W
20.70 m
8101505
71700
YFC

Download Data

Hourly Data (October 2013)
Hourly Data Report for October 22, 2013
Temp Definition
°C
Dew Point Temp Definition
°C
Rel Hum Definition
%
Wind Dir Definition
10's deg

Wind Spd Definition
km/h
Visibility Definition
km
Stn Press Definition
kPa
Hmdx Definition


Wind Chill Definition


Weather Definition


TIME
00:00 Legend Double Dagger 2.6 1.9 95 18 5 16.1 101.39     LegendNANA
01:00 Legend Double Dagger 2.6 2.1 96 LegendMM 4 16.1 101.37     LegendNANA
02:00 Legend Double Dagger 3.2 2.9 98 LegendMM 4 16.1 101.36     LegendNANA
03:00 Legend Double Dagger 3.7 3.4 98   0 16.1 101.29     LegendNANA
04:00 Legend Double Dagger 4.3 4.0 98 34 8 16.1 101.28     LegendNANA
05:00 Legend Double Dagger 4.7 3.8 94 1 4 16.1 101.26     LegendNANA
06:00 Legend Double Dagger 5.5 4.6 94 6 5 16.1 101.21     LegendNANA
07:00 Legend Double Dagger 5.7 5.0 95 3 5 16.1 101.15     LegendNANA
08:00 Legend Double Dagger 6.4 6.0 97 5 4 16.1 101.09     LegendNANA
09:00 Legend Double Dagger 8.6 7.5 93 16 5 16.1 101.08     LegendNANA
10:00 Legend Double Dagger 13.4 9.5 77 17 22 16.1 100.95     LegendNANA
11:00 Legend Double Dagger 15.0 8.7 66 17 24 16.1 100.90     LegendNANA
12:00 Legend Double Dagger 14.8 8.2 64 18 28 16.1 100.79     LegendNANA
13:00 Legend Double Dagger 14.0 8.3 68 18 22 16.1 100.71     LegendNANA
14:00 Legend Double Dagger 14.1 9.0 71 17 24 16.1 100.60     LegendNANA
15:00 Legend Double Dagger 11.9 9.7 86 18 22 11.3 100.58     LegendNANA
16:00 Legend Double Dagger 11.5 9.6 88 17 17 11.3 100.51     LegendNANA
17:00 Legend Double Dagger 11.1 9.2 88 17 17 16.1 100.46     LegendNANA
18:00 Legend Double Dagger 11.0 9.7 91 16 21 16.1 100.36     LegendNANA
19:00 Legend Double Dagger 11.3 10.2 93 17 17 16.1 100.27     LegendNANA
20:00 Legend Double Dagger 11.5 10.7 95 19 13 16.1 100.21     LegendNANA
21:00 Legend Double Dagger 11.7 10.9 95 18 15 16.1 100.16     LegendNANA
22:00 Legend Double Dagger 11.3 9.2 87 30 28 16.1 100.24     LegendNANA
23:00 Legend Double Dagger 6.9 5.2 89 28 8 16.1 100.26     LegendNANA

Notes on Data Quality.

Legend

  • E = Estimated
  • M = Missing
  • NA = Not Available
  • ‡ = Partner data that is not subject to review by the National Climate Archives
Date modified: